This is the latest recevied weather packets stored in our database for station/object N5ATR. If no packets are shown the sender has not sent any weather packets the latest 1 day(s).
| Time | Temp. | Humidity | Pressure | Rain* | Wind** | Luminosity | Snow |
|---|---|---|---|---|---|---|---|
| 1777984702 | 9.44° C | 51% | 1011.7 hPa | 0 mm | 1.34 m/s, 261° | 10 W/m² | - |
| 1777984399 | 8.89° C | 50% | 1011.9 hPa | 0 mm | 1.34 m/s, 274° | 8 W/m² | - |
| 1777984095 | 8.89° C | 50% | 1011.9 hPa | 0 mm | 1.79 m/s, 223° | 6 W/m² | - |
| 1777983792 | 8.89° C | 50% | 1011.9 hPa | 0 mm | 1.34 m/s, 252° | 4 W/m² | - |
| 1777983489 | 8.89° C | 49% | 1011.6 hPa | 0 mm | 0.89 m/s, 224° | 3 W/m² | - |
| 1777983186 | 9.44° C | 48% | 1011.9 hPa | 0 mm | 0.45 m/s, 319° | 2 W/m² | - |
| 1777982882 | 9.44° C | 48% | 1011.7 hPa | 0 mm | 1.34 m/s, 295° | 1 W/m² | - |
| 1777982578 | 9.44° C | 47% | 1011.6 hPa | 0 mm | 1.34 m/s, 259° | 0 W/m² | - |
| 1777982277 | 8.89° C | 47% | 1011.7 hPa | 0 mm | 0.89 m/s, 325° | 0 W/m² | - |
| 1777981974 | 9.44° C | 47% | 1011.4 hPa | 0 mm | 0 m/s | 0 W/m² | - |
| 1777981672 | 9.44° C | 46% | 1011.3 hPa | 0 mm | 0.89 m/s, 271° | 0 W/m² | - |
| 1777981368 | 9.44° C | 45% | 1011.4 hPa | 0 mm | 1.34 m/s, 234° | 0 W/m² | - |
| 1777981065 | 8.89° C | 46% | 1011.6 hPa | 0 mm | 0.89 m/s, 49° | 0 W/m² | - |
| 1777980761 | 8.89° C | 47% | 1011.3 hPa | 0 mm | 0 m/s | 0 W/m² | - |
| 1777980457 | 8.89° C | 46% | 1011.4 hPa | 0 mm | 0 m/s | 0 W/m² | - |
| 1777980155 | 9.44° C | 45% | 1011.9 hPa | 0 mm | 0 m/s | 0 W/m² | - |
| 1777979855 | 9.44° C | 42% | 1011.7 hPa | 0 mm | 0 m/s | 0 W/m² | - |
| 1777979551 | 10° C | 42% | 1011.8 hPa | 0 mm | 0 m/s | 0 W/m² | - |
| 1777979247 | 10° C | 41% | 1011.8 hPa | 0 mm | 0 m/s | 0 W/m² | - |
| 1777978945 | 10° C | 40% | 1011.7 hPa | 0 mm | 0.45 m/s, 342° | 0 W/m² | - |
| 1777978641 | 10° C | 40% | 1011.6 hPa | 0 mm | 0.89 m/s, 233° | 0 W/m² | - |
| 1777978337 | 10.56° C | 39% | 1011.7 hPa | 0 mm | 0.45 m/s, 314° | 0 W/m² | - |
| 1777978034 | 11.11° C | 38% | 1011.7 hPa | 0 mm | 1.34 m/s, 232° | 0 W/m² | - |
| 1777977731 | 11.11° C | 37% | 1011.7 hPa | 0 mm | 2.68 m/s, 235° | 0 W/m² | - |
| 1777977427 | 10.56° C | 37% | 1011.8 hPa | 0 mm | 1.34 m/s, 231° | 0 W/m² | - |
* Rain latest hour (hover to see other rain measurements)
** Current wind speed in m/s (hover to see current wind gust speed)